Change the Weather History Date:

Saturday, December 28, 2013

  Actual Average Record
Temperature  
Mean Temperature 37 °F -  
Max Temperature 44 °F 30 °F 57 °F (2008)
Min Temperature 30 °F 13 °F -15 °F (1960)
Degree Days  
Heating Degree Days 28    
Moisture  
Dew Point 27 °F    
Average Humidity 65    
Maximum Humidity 80    
Minimum Humidity 57    
Precipitation  
Precipitation 0.00 in - - ()
Sea Level Pressure  
Sea Level Pressure 30.05 in    
Wind  
Wind Speed 11 mph (SSW)    
Max Wind Speed 17 mph    
Max Gust Speed 23 mph    
Visibility 10 miles    
Events      
Averages and records for this station are not official NWS values.
T = Trace of Precipitation, MM = Missing Value Source: NWS Daily Summary

Daily Weather History Graph

Daily Weather History Graph

Search for Another Location

Airport or City:

Trip Planner

Search our weather history database for the weather conditions in past years. The results will help you decide how hot, cold, wet, or windy it might be!

Date:

Astronomy

Dec. 28, 2013 Rise Set
Actual Time 7:44 AM EST 4:52 PM EST
Civil Twilight 7:13 AM EST 5:24 PM EST
Nautical Twilight 6:37 AM EST 5:59 PM EST
Astronomical Twilight 6:03 AM EST 6:33 PM EST
Moon 3:17 AM EST (12/28) 1:44 PM EST (12/28)
Length of Visible Light 10h 11m
Length of Day
9h 07m
Waning Crescent, 19% of the Moon is Illuminated
Dec 28
Waning Crescent
Jan 1
New
Jan 7
First Quarter
Jan 15
Full
Jan 24
Last Quarter

Hourly Weather History & Observations

Time (EST) Temp. Windchill Dew Point Humidity Pressure Visibility Wind Dir Wind Speed Gust Speed Precip Events Conditions
12:15 AM 30.2 °F 21.3 °F 24.8 °F 80% 30.10 in 10.0 mi SSW 10.4 mph 16.1 mph N/A   Clear
12:35 AM 32.0 °F 23.0 °F 24.8 °F 75% 30.09 in 10.0 mi SSW 11.5 mph - N/A   Clear
12:55 AM 32.0 °F 24.2 °F 24.8 °F 75% 30.09 in 10.0 mi SSW 9.2 mph 16.1 mph N/A   Clear
1:15 AM 33.8 °F 24.8 °F 24.8 °F 70% 30.09 in 10.0 mi SW 12.7 mph 18.4 mph N/A   Clear
1:35 AM 33.8 °F 25.3 °F 24.8 °F 70% 30.08 in 10.0 mi SW 11.5 mph 18.4 mph N/A   Clear
1:55 AM 33.8 °F 25.3 °F 24.8 °F 70% 30.08 in 10.0 mi SSW 11.5 mph 21.9 mph N/A   Clear
2:15 AM 33.8 °F 25.3 °F 24.8 °F 70% 30.08 in 10.0 mi SSW 11.5 mph 19.6 mph N/A   Clear
2:35 AM 33.8 °F 24.3 °F 24.8 °F 70% 30.07 in 10.0 mi SSW 13.8 mph 20.7 mph N/A   Clear
2:55 AM 33.8 °F 25.8 °F 24.8 °F 70% 30.07 in 10.0 mi SSW 10.4 mph - N/A   Mostly Cloudy
3:15 AM 33.8 °F 25.8 °F 24.8 °F 70% 30.07 in 10.0 mi SSW 10.4 mph - N/A   Overcast
3:35 AM 35.6 °F 27.5 °F 24.8 °F 65% 30.07 in 10.0 mi SSW 11.5 mph - N/A   Overcast
3:55 AM 35.6 °F 27.5 °F 24.8 °F 65% 30.06 in 10.0 mi SSW 11.5 mph 18.4 mph N/A   Overcast
4:15 AM 35.6 °F 28.0 °F 24.8 °F 65% 30.05 in 10.0 mi SSW 10.4 mph 17.3 mph N/A   Overcast
4:35 AM 35.6 °F 27.1 °F 24.8 °F 65% 30.05 in 10.0 mi SSW 12.7 mph - N/A   Overcast
4:55 AM 35.6 °F 26.6 °F 24.8 °F 65% 30.04 in 10.0 mi SSW 13.8 mph 19.6 mph N/A   Overcast
5:15 AM 35.6 °F 27.5 °F 24.8 °F 65% 30.03 in 10.0 mi SSW 11.5 mph 18.4 mph N/A   Overcast
5:35 AM 35.6 °F 28.0 °F 24.8 °F 65% 30.03 in 10.0 mi SSW 10.4 mph 17.3 mph N/A   Overcast
5:55 AM 35.6 °F 28.0 °F 24.8 °F 65% 30.04 in 10.0 mi SSW 10.4 mph - N/A   Overcast
6:15 AM 35.6 °F 28.6 °F 24.8 °F 65% 30.05 in 10.0 mi SSW 9.2 mph - N/A   Scattered Clouds
6:35 AM 35.6 °F 29.2 °F 24.8 °F 65% 30.05 in 10.0 mi SSW 8.1 mph - N/A   Clear
6:55 AM 35.6 °F 29.2 °F 24.8 °F 65% 30.05 in 10.0 mi SSW 8.1 mph - N/A   Clear
7:15 AM 35.6 °F 29.9 °F 24.8 °F 65% 30.07 in 10.0 mi SSW 6.9 mph - N/A   Clear
7:35 AM 33.8 °F 27.7 °F 24.8 °F 70% 30.06 in 10.0 mi SSW 6.9 mph - N/A   Clear
7:55 AM 33.8 °F 27.7 °F 24.8 °F 70% 30.07 in 10.0 mi SSW 6.9 mph - N/A   Clear
8:15 AM 33.8 °F 27.0 °F 24.8 °F 70% 30.08 in 10.0 mi SSW 8.1 mph - N/A   Clear
8:35 AM 33.8 °F 25.8 °F 24.8 °F 70% 30.09 in 10.0 mi SSW 10.4 mph - N/A   Clear
8:55 AM 35.6 °F 28.6 °F 24.8 °F 65% 30.09 in 10.0 mi SSW 9.2 mph - N/A   Clear
9:15 AM 35.6 °F 28.6 °F 24.8 °F 65% 30.09 in 10.0 mi SW 9.2 mph - N/A   Clear
9:35 AM 35.6 °F 27.5 °F 24.8 °F 65% 30.10 in 10.0 mi SW 11.5 mph - N/A   Clear
9:55 AM 37.4 °F 28.5 °F 26.6 °F 65% 30.11 in 10.0 mi WSW 15.0 mph - N/A   Clear
10:15 AM 37.4 °F 28.9 °F 26.6 °F 65% 30.11 in 10.0 mi WSW 13.8 mph - N/A   Clear
10:35 AM 37.4 °F 28.9 °F 26.6 °F 65% 30.11 in 10.0 mi SW 13.8 mph - N/A   Partly Cloudy
10:55 AM 39.2 °F 31.2 °F 26.6 °F 61% 30.10 in 10.0 mi SW 13.8 mph - N/A   Partly Cloudy
11:15 AM 39.2 °F 31.2 °F 26.6 °F 61% 30.09 in 10.0 mi WSW 13.8 mph 20.7 mph N/A   Clear
11:35 AM 39.2 °F 31.6 °F 28.4 °F 65% 30.08 in 10.0 mi SW 12.7 mph 17.3 mph N/A   Clear
11:55 AM 39.2 °F 30.2 °F 28.4 °F 65% 30.07 in 10.0 mi SW 17.3 mph 23.0 mph N/A   Clear
12:15 PM 39.2 °F 30.5 °F 28.4 °F 65% 30.06 in 10.0 mi SW 16.1 mph 23.0 mph N/A   Clear
12:35 PM 39.2 °F 30.5 °F 28.4 °F 65% 30.05 in 10.0 mi SW 16.1 mph 21.9 mph N/A   Clear
12:55 PM 39.2 °F 31.2 °F 28.4 °F 65% 30.04 in 10.0 mi SW 13.8 mph - N/A   Clear
1:15 PM 41.0 °F 32.5 °F 28.4 °F 61% 30.04 in 10.0 mi WSW 17.3 mph - N/A   Clear
1:35 PM 41.0 °F 33.9 °F 28.4 °F 61% 30.03 in 10.0 mi WSW 12.7 mph - N/A   Clear
1:55 PM 42.8 °F 35.8 °F 28.4 °F 57% 30.02 in 10.0 mi SW 13.8 mph - N/A   Clear
2:15 PM 42.8 °F 35.8 °F 30.2 °F 61% 30.02 in 10.0 mi SW 13.8 mph 19.6 mph N/A   Clear
2:35 PM 42.8 °F 35.4 °F 30.2 °F 61% 30.02 in 10.0 mi WSW 15.0 mph - N/A   Clear
2:55 PM 42.8 °F 36.6 °F 30.2 °F 61% 30.01 in 10.0 mi WSW 11.5 mph - N/A   Clear
3:15 PM 42.8 °F 36.2 °F 30.2 °F 61% 30.02 in 10.0 mi WSW 12.7 mph 17.3 mph N/A   Clear
3:35 PM 44.6 °F 39.7 °F 30.2 °F 57% 30.02 in 10.0 mi SW 9.2 mph - N/A   Clear
3:55 PM 44.6 °F 39.2 °F 30.2 °F 57% 30.02 in 10.0 mi SSW 10.4 mph - N/A   Clear
4:15 PM 42.8 °F 38.0 °F 28.4 °F 57% 30.02 in 10.0 mi SW 8.1 mph - N/A   Clear
4:35 PM 42.8 °F 37.0 °F 28.4 °F 57% 30.04 in 10.0 mi SSW 10.4 mph - N/A   Clear
4:55 PM 42.8 °F 38.0 °F 28.4 °F 57% 30.04 in 10.0 mi SSW 8.1 mph - N/A   Clear
5:15 PM 41.0 °F 35.8 °F 28.4 °F 61% 30.04 in 10.0 mi SSW 8.1 mph - N/A   Clear
5:35 PM 41.0 °F 35.2 °F 28.4 °F 61% 30.04 in 10.0 mi South 9.2 mph - N/A   Clear
5:55 PM 41.0 °F 35.2 °F 28.4 °F 61% 30.04 in 10.0 mi South 9.2 mph - N/A   Clear
6:15 PM 41.0 °F 35.2 °F 28.4 °F 61% 30.03 in 10.0 mi South 9.2 mph - N/A   Clear
6:35 PM 41.0 °F 34.3 °F 28.4 °F 61% 30.01 in 10.0 mi SSW 11.5 mph - N/A   Clear
6:55 PM 41.0 °F 35.2 °F 28.4 °F 61% 30.02 in 10.0 mi SSW 9.2 mph - N/A   Clear
7:15 PM 41.0 °F 34.7 °F 28.4 °F 61% 30.03 in 10.0 mi SSW 10.4 mph - N/A   Clear
7:35 PM 41.0 °F 35.2 °F 28.4 °F 61% 30.03 in 10.0 mi SSW 9.2 mph - N/A   Clear
7:55 PM 39.2 °F 33.6 °F 28.4 °F 65% 30.02 in 10.0 mi South 8.1 mph - N/A   Clear
8:15 PM 39.2 °F 33.6 °F 26.6 °F 61% 30.02 in 10.0 mi South 8.1 mph - N/A   Clear
8:35 PM 41.0 °F 35.2 °F 28.4 °F 61% 30.02 in 10.0 mi South 9.2 mph - N/A   Clear
8:55 PM 39.2 °F 32.5 °F 28.4 °F 65% 30.03 in 10.0 mi South 10.4 mph - N/A   Clear
9:15 PM 39.2 °F 33.0 °F 28.4 °F 65% 30.02 in 10.0 mi South 9.2 mph - N/A   Clear
9:35 PM 41.0 °F 35.8 °F 26.6 °F 57% 30.02 in 10.0 mi South 8.1 mph - N/A   Clear
9:55 PM 39.2 °F 33.6 °F 28.4 °F 65% 30.01 in 10.0 mi South 8.1 mph - N/A   Clear
10:15 PM 39.2 °F 34.2 °F 28.4 °F 65% 30.01 in 10.0 mi South 6.9 mph - N/A   Clear
10:35 PM 37.4 °F 32.1 °F 28.4 °F 70% 30.00 in 10.0 mi South 6.9 mph - N/A   Clear
10:55 PM 37.4 °F 32.1 °F 28.4 °F 70% 29.99 in 10.0 mi South 6.9 mph - N/A   Clear
11:15 PM 37.4 °F 32.1 °F 26.6 °F 65% 29.99 in 10.0 mi South 6.9 mph - N/A   Clear
11:35 PM 37.4 °F 32.1 °F 26.6 °F 65% 29.98 in 10.0 mi South 6.9 mph - N/A   Clear
11:55 PM 37.4 °F 32.1 °F 26.6 °F 65% 29.97 in 10.0 mi South 6.9 mph - N/A   Clear